Change the Weather History Date:

Tuesday, October 2, 2012

  Actual Average Record
Temperature  
Mean Temperature 79 °F -  
Max Temperature 84 °F 81 °F 88 °F (2003)
Min Temperature 74 °F 71 °F 46 °F (1998)
Cooling Degree Days 14    
Growing Degree Days 29 (Base 50)    
Moisture  
Dew Point 70 °F    
Average Humidity 77    
Maximum Humidity 89    
Minimum Humidity 57    
Precipitation  
Precipitation 0.00 in - - ()
Sea Level Pressure  
Sea Level Pressure 29.94 in    
Wind  
Wind Speed 3 mph (East)    
Max Wind Speed 9 mph    
Max Gust Speed -    
Visibility 10 miles    
Events      
Averages and records for this station are not official NWS values.
T = Trace of Precipitation, MM = Missing Value Source: NWS Daily Summary

Daily Weather History Graph

Daily Weather History Graph

Search for Another Location

Airport or City:

Trip Planner

Search our weather history database for the weather conditions in past years. The results will help you decide how hot, cold, wet, or windy it might be!

Date:

Astronomy

Oct. 02, 2012 Rise Set
Actual Time 6:22 AM HST 6:17 PM HST
Civil Twilight 6:00 AM HST 6:39 PM HST
Nautical Twilight 5:34 AM HST 7:05 PM HST
Astronomical Twilight 5:08 AM HST 7:30 PM HST
Moon 8:04 PM HST (10/2) 8:35 AM HST (10/2)
Length of Visible Light 12h 38m
Length of Day
11h 54m
Waning Gibbous, 93% of the Moon is Illuminated
Oct 2
Waning Gibbous
Oct 7
Last Quarter
Oct 15
New
Oct 21
First Quarter
Oct 29
Full

Hourly Weather History & Observations

Time (HST) Temp. Heat Index Dew Point Humidity Pressure Visibility Wind Dir Wind Speed Gust Speed Precip Events Conditions
12:57 AM 75.9 °F - 71.1 °F 85% 29.94 in 10.0 mi NW 3.5 mph - N/A   Mostly Cloudy
1:57 AM 74.5 °F - 71.1 °F 89% 29.92 in 10.0 mi Calm Calm - N/A   Mostly Cloudy
2:57 AM 84.9 °F 90.1 °F 71.1 °F 63% 29.91 in 10.0 mi Calm Calm - N/A   Overcast
3:57 AM 75.7 °F - 71.1 °F 85% 29.91 in 10.0 mi SE 4.6 mph - 0.00 in   Mostly Cloudy
4:34 AM 75.2 °F - 69.8 °F 83% 29.93 in 6.2 mi Calm Calm - N/A   Mostly Cloudy
4:57 AM 74.7 °F - 70.0 °F 85% 29.92 in 10.0 mi Calm Calm - N/A   Mostly Cloudy
5:35 AM 75.2 °F - 71.6 °F 89% 29.94 in 6.2 mi WSW 3.5 mph - N/A   Mostly Cloudy
5:57 AM 75.9 °F - 71.1 °F 85% 29.92 in 10.0 mi Calm Calm - N/A   Partly Cloudy
6:57 AM 75.7 °F - 71.1 °F 85% 29.94 in 10.0 mi West 4.6 mph - N/A   Partly Cloudy
7:57 AM 75.9 °F - 72.0 °F 87% 29.95 in 10.0 mi WNW 3.5 mph - N/A   Partly Cloudy
8:57 AM 77.0 °F - 72.0 °F 84% 29.96 in 10.0 mi Calm Calm - N/A   Mostly Cloudy
9:57 AM 78.8 °F - 71.6 °F 78% 29.96 in 10.0 mi Calm Calm - N/A   Clear
10:57 AM 78.8 °F - 71.6 °F 78% 29.96 in 10.0 mi NNE 6.9 mph - N/A   Mostly Cloudy
11:57 AM 78.8 °F - 69.8 °F 74% 29.94 in 10.0 mi ESE 8.1 mph - N/A   Mostly Cloudy
12:57 PM 84.2 °F 90.9 °F 73.4 °F 70% 29.92 in 10.0 mi Variable 6.9 mph - N/A   Mostly Cloudy
1:57 PM 81.9 °F 84.2 °F 66.9 °F 60% 29.90 in 10.0 mi ENE 8.1 mph - N/A   Partly Cloudy
2:57 PM 84.4 °F 88.7 °F 70.0 °F 62% 29.89 in 10.0 mi Variable 3.5 mph - N/A   Scattered Clouds
3:57 PM 83.5 °F 86.0 °F 66.9 °F 57% 29.89 in 10.0 mi East 6.9 mph - N/A   Clear
4:57 PM 84.2 °F 88.4 °F 69.8 °F 62% 29.90 in 10.0 mi East 9.2 mph - N/A   Scattered Clouds
5:57 PM 78.8 °F - 68.0 °F 69% 29.91 in 10.0 mi ESE 5.8 mph - N/A   Mostly Cloudy
6:57 PM 78.1 °F - 70.0 °F 76% 29.93 in 10.0 mi East 4.6 mph - N/A   Mostly Cloudy
7:57 PM 77.0 °F - 69.8 °F 78% 29.96 in 10.0 mi ESE 3.5 mph - N/A   Partly Cloudy
8:57 PM 77.2 °F - 68.0 °F 73% 29.98 in 10.0 mi ESE 4.6 mph - N/A   Mostly Cloudy
9:57 PM 77.2 °F - 69.8 °F 78% 30.00 in 10.0 mi ESE 4.6 mph - N/A   Mostly Cloudy
10:57 PM 77.0 °F - 70.0 °F 79% 29.99 in 10.0 mi Calm Calm - N/A   Partly Cloudy
11:57 PM 75.0 °F - 70.0 °F 84% 29.99 in 10.0 mi East 3.5 mph - N/A   Partly Cloudy